User: anonymous   Login
Location: Oshawa
(43.9000°N, 78.8670°W)
Time: 12:11:37
(UTC-04:00)
Language:

CARTOSAT-1 - Orbit

View from above orbital plane
View from above orbital plane
View from above satellite
View from above satellite

Ground track
Ground track

The orbit data is extracted from the following two-line orbital elements,

1 28649U 05017A   16237.16493580  .00000167  00000-0  26765-4 0  9991
2 28649  97.8944 309.6733 0001020 341.7170  18.4005 14.83439963611948
Epoch (UTC): 24 August 2016 03:57:30
Eccentricity: 0.0001020
inclination: 97.8944°
perigee height: 618 km
apogee height: 619 km
right ascension of ascending node: 309.6733°
argument of perigee: 341.7170°
revolutions per day: 14.83439963
mean anomaly at epoch: 18.4005°
orbit number at epoch: 61194

The dashed part of the orbit path shows where the satellite is in the earth's shadow,  

DLR